Location: El Para�so
(10.4896°N, 66.9245°W)
Time: 20:20:14
(UTC+00:00)

Cosmos 2151 - Pass Details

Date: 08 August 2020
Orbit: 582 x 600 km, 82.5° (Epoch: 01 October)

Event Time Altitude Azimuth Distance (km) Brightness Sun altitude
Rises 23:07:43 0° 196° (SSW) 2,806 6.4 -5.3°
Reaches altitude 10° 23:10:00 10° 203° (SSW) 1,903 5.7 -5.8°
Maximum altitude 23:13:59 42° 275° (W) 830 4.4 -6.8°
Drops below altitude 10° 23:17:57 10° 347° (NNW) 1,895 6.0 -7.7°
Sets 23:20:14 0° 354° (N) 2,792 6.8 -8.2°
